Location: Banff
(51.1667°N, 115.5667°W)
Time: 15:27:32
(UTC+00:00)

Tiros 1 - Pass Details

Date: 05 August 2021
Orbit: 630 x 663 km, 48.4° (Epoch: 23 September)

Event Time Altitude Azimuth Distance (km) Brightness Sun altitude
Rises 05:10:55 0° 279° (W) 2,977 11.3 -13.7°
Reaches altitude 10° 05:13:24 10° 271° (W) 2,059 10.3 -14.0°
Maximum altitude 05:17:44 36° 205° (SSW) 1,021 7.9 -14.4°
Enters shadow 05:19:54 23° 156° (SSE) 1,351 8.2 -14.6°
